EW0362 Weather Reports


Display with metric or nautical units.
time (UTC)temp
F
wind
direction
speed
MPH
gust
MPH
rain 1hr
in
rain 24hr
in
rain mn
in
humidity
%
barometer
mb
20260901014204 66 5 0.0 0.0 0.00 0.00 0.00 89 1017.4
20260901013704 66 5 0.0 0.0 0.00 0.00 0.00 88 1017.4
20260901013204 66 5 0.0 0.0 0.00 0.00 0.00 88 1017.5
20260901011704 66 5 0.0 0.0 0.00 0.00 0.00 87 1017.5
20260901011203 66 5 0.0 0.0 0.00 0.00 0.00 86 1017.5
20260901010704 66 5 0.0 0.0 0.00 0.00 0.00 86 1017.5
20260901005703 67 5 0.0 0.0 0.00 0.00 0.00 86 1017.6
20260901005203 67 5 0.0 0.0 0.00 0.00 0.00 87 1017.6
20260901004203 67 5 0.0 0.0 0.00 0.00 0.00 86 1017.5
20260901003703 68 5 0.0 0.0 0.00 0.00 0.00 85 1017.4
20260901003204 68 5 0.0 0.0 0.00 0.00 0.00 83 1017.5
20260901001205 69 5 0.0 0.0 0.00 0.00 0.00 82 1017.2
20260901000705 69 5 0.0 0.0 0.00 0.00 0.00 83 1017.1
20260831232705 71 5 0.0 0.0 0.00 0.00 0.00 80 1017.3
20260831232204 71 5 0.0 0.0 0.00 0.00 0.00 79 1017.3
20260831230205 72 5 0.0 0.0 0.00 0.00 0.00 80 1017.4
20260831223705 73 5 0.0 0.0 0.00 0.00 0.00 76 1017.6
20260831222205 73 5 0.0 0.0 0.00 0.00 0.00 74 1017.5
20260831221704 73 5 0.0 1.0 0.00 0.00 0.00 74 1017.6
20260831221205 74 5 0.0 1.0 0.00 0.00 0.00 73 1017.6
20260831220704 74 5 0.0 1.0 0.00 0.00 0.00 73 1017.5
20260831220205 74 247 0.0 0.0 0.00 0.00 0.00 73 1017.5
20260831215705 74 247 0.0 1.0 0.00 0.00 0.00 71 1017.4
20260831215205 74 247 0.0 0.0 0.00 0.00 0.00 72 1017.4
20260831214205 74 247 0.0 1.0 0.00 0.00 0.00 70 1017.4
20260831213204 74 247 0.0 0.0 0.00 0.00 0.00 70 1017.4
20260831212205 75 247 0.0 0.0 0.00 0.00 0.00 71 1017.4
20260831211704 75 247 0.0 0.0 0.00 0.00 0.00 71 1017.5
20260831210704 75 247 0.0 1.0 0.00 0.00 0.00 69 1017.7
20260831210204 75 244 0.0 3.0 0.00 0.00 0.00 71 1017.7
20260831205704 75 236 0.0 2.0 0.00 0.00 0.00 69 1017.7
20260831202704 76 232 1.0 2.0 0.00 0.00 0.00 69 1017.7
20260831201705 76 223 0.0 2.0 0.00 0.00 0.00 70 1017.7
20260831200705 76 262 0.0 3.0 0.00 0.00 0.00 64 1017.7
20260831194705 76 56 0.0 3.0 0.00 0.00 0.00 63 1017.9
20260831193705 76 289 1.0 3.0 0.00 0.00 0.00 64 1017.9
20260831193205 76 51 1.0 3.0 0.00 0.00 0.00 61 1017.8
20260831192704 76 49 1.0 3.0 0.00 0.00 0.00 57 1017.9
20260831192205 76 335 1.0 2.0 0.00 0.00 0.00 66 1017.9
20260831191704 76 5 1.0 6.0 0.00 0.00 0.00 60 1017.9
20260831190704 75 214 0.0 2.0 0.00 0.00 0.00 64 1018.3
20260831190205 75 217 0.0 1.0 0.00 0.00 0.00 66 1018.3
20260831185705 75 217 1.0 2.0 0.00 0.00 0.00 63 1018.3
20260831184705 75 73 0.0 1.0 0.00 0.00 0.00 61 1018.4
20260831183705 75 67 1.0 3.0 0.00 0.00 0.00 61 1018.5
20260831183205 75 242 0.0 1.0 0.00 0.00 0.00 64 1018.6
20260831181204 75 244 0.0 1.0 0.00 0.00 0.00 63 1018.8
20260831180704 75 249 0.0 1.0 0.00 0.00 0.00 65 1018.8
20260831175704 75 255 0.0 2.0 0.00 0.00 0.00 62 1018.7
20260831174704 75 254 1.0 3.0 0.00 0.00 0.00 64 1018.9
20260831173204 75 31 1.0 3.0 0.00 0.00 0.00 57 1018.9
20260831172705 74 310 1.0 7.0 0.00 0.00 0.00 60 1019.0
20260831171705 74 86 0.0 2.0 0.00 0.00 0.00 59 1019.1
20260831170205 74 359 0.0 2.0 0.00 0.00 0.00 58 1019.2
20260831165705 73 101 0.0 3.0 0.00 0.00 0.00 59 1019.3
20260831165204 73 64 2.0 3.0 0.00 0.00 0.00 58 1019.4
20260831164205 73 284 0.0 3.0 0.00 0.00 0.00 68 1019.6
20260831161704 72 276 1.0 6.0 0.00 0.00 0.00 62 1019.8
20260831160705 72 286 1.0 3.0 0.00 0.00 0.00 63 1019.8
20260831160205 72 253 0.0 3.0 0.00 0.00 0.00 63 1019.8
20260831155704 71 278 2.0 3.0 0.00 0.00 0.00 63 1019.9
20260831155205 71 259 1.0 2.0 0.00 0.00 0.00 66 1019.9
20260831154705 71 258 0.0 2.0 0.00 0.00 0.00 63 1019.9
20260831154204 71 257 2.0 3.0 0.00 0.00 0.00 67 1019.9
20260831153205 70 261 2.0 5.0 0.00 0.00 0.00 66 1020.0
20260831151705 69 23 0.0 3.0 0.00 0.00 0.00 69 1020.1
20260831150705 69 257 0.0 2.0 0.00 0.00 0.00 73 1020.2
20260831150204 69 255 0.0 1.0 0.00 0.00 0.00 73 1020.2
20260831145204 69 277 1.0 3.0 0.00 0.00 0.00 73 1020.3
20260831144204 68 49 0.0 2.0 0.00 0.00 0.00 75 1020.4
20260831143704 68 57 0.0 2.0 0.00 0.00 0.00 72 1020.4
20260831141704 67 78 0.0 2.0 0.00 0.00 0.00 77 1020.5
20260831140204 66 82 0.0 1.0 0.00 0.00 0.00 80 1020.3
20260831135205 65 80 0.0 1.0 0.00 0.00 0.00 82 1020.4
20260831134205 64 80 1.0 3.0 0.00 0.00 0.00 81 1020.4
20260831133704 64 80 0.0 2.0 0.00 0.00 0.00 83 1020.4
20260831131705 61 167 0.0 0.0 0.00 0.00 0.00 90 1020.2
20260831130705 61 167 0.0 0.0 0.00 0.00 0.00 95 1020.3
20260831130204 61 167 0.0 0.0 0.00 0.00 0.00 95 1020.3
20260831125704 60 167 0.0 0.0 0.00 0.00 0.00 96 1020.3
20260831123704 60 168 0.0 1.0 0.00 0.00 0.00 98 1020.3
20260831123205 60 167 0.0 0.0 0.00 0.00 0.00 98 1020.3
20260831122704 59 167 0.0 0.0 0.00 0.00 0.00 98 1020.3
20260831120704 58 168 0.0 0.0 0.00 0.00 0.00 98 1020.2
20260831115704 58 168 0.0 0.0 0.00 0.00 0.00 97 1020.0
20260831115204 57 167 0.0 0.0 0.00 0.00 0.00 97 1019.9
20260831114205 57 168 0.0 0.0 0.00 0.00 0.00 96 1019.8
20260831111204 57 167 0.0 0.0 0.00 0.00 0.00 95 1019.7
20260831110705 57 167 0.0 0.0 0.00 0.00 0.00 95 1019.7
20260831110205 57 167 0.0 0.0 0.00 0.00 0.00 95 1019.8
20260831105204 57 167 0.0 0.0 0.00 0.00 0.00 94 1019.7
20260831104204 57 167 0.0 0.0 0.00 0.00 0.00 94 1019.6
20260831102205 57 167 0.0 0.0 0.00 0.00 0.00 94 1019.5
20260831101704 57 167 0.0 0.0 0.00 0.00 0.00 94 1019.5
20260831100704 58 167 0.0 0.0 0.00 0.00 0.00 94 1019.4
20260831100205 58 167 0.0 0.0 0.00 0.00 0.00 94 1019.3
20260831094704 58 167 0.0 0.0 0.00 0.00 0.00 94 1019.0
20260831093705 58 167 0.0 0.0 0.00 0.00 0.00 94 1018.9
20260831092704 58 167 0.0 0.0 0.00 0.00 0.00 94 1018.9
20260831092204 59 167 0.0 0.0 0.00 0.00 0.00 94 1018.8
20260831091704 59 167 0.0 0.0 0.00 0.00 0.00 94 1018.7
20260831091204 59 167 0.0 0.0 0.00 0.00 0.00 94 1018.6
20260831090704 59 167 0.0 0.0 0.00 0.00 0.00 94 1018.5
20260831090204 59 167 0.0 0.0 0.00 0.00 0.00 94 1018.5
20260831085204 59 167 0.0 0.0 0.00 0.00 0.00 94 1018.4
20260831083704 60 167 0.0 0.0 0.00 0.00 0.00 94 1018.3
20260831083204 60 167 0.0 0.0 0.00 0.00 0.00 94 1018.3
20260831082204 60 167 0.0 0.0 0.00 0.00 0.00 93 1018.3
20260831080704 61 167 0.0 0.0 0.00 0.00 0.00 93 1018.2
20260831080204 61 167 0.0 0.0 0.00 0.00 0.00 93 1018.1
20260831075704 61 167 0.0 0.0 0.00 0.00 0.00 93 1018.1
20260831074704 61 167 0.0 0.0 0.00 0.00 0.00 93 1017.9
20260831073704 62 167 0.0 0.0 0.00 0.00 0.00 93 1017.8
20260831072704 62 167 0.0 0.0 0.00 0.00 0.00 93 1017.9
20260831072204 62 167 0.0 0.0 0.00 0.00 0.00 93 1017.9
20260831071704 62 167 0.0 0.0 0.00 0.00 0.00 93 1017.8
20260831063704 63 167 0.0 0.0 0.00 0.00 0.00 92 1017.6
20260831063204 63 167 0.0 0.0 0.00 0.00 0.00 92 1017.6
20260831061204 64 167 0.0 0.0 0.00 0.00 0.00 92 1017.4
20260831055204 65 167 0.0 0.0 0.00 0.00 0.00 91 1017.3
20260831054704 65 167 0.0 0.0 0.00 0.00 0.00 91 1017.4
20260831053704 65 167 0.0 0.0 0.00 0.00 0.00 91 1017.3
20260831051704 66 167 0.0 0.0 0.00 0.00 0.00 90 1017.2
20260831051204 66 167 0.0 0.0 0.00 0.00 0.00 90 1017.2
20260831050704 66 167 0.0 0.0 0.00 0.00 0.00 91 1017.2
20260831045704 67 167 0.0 0.0 0.00 0.00 0.00 90 1017.2
20260831045204 67 167 0.0 0.0 0.00 0.00 0.00 90 1017.2
20260831044704 67 167 0.0 0.0 0.00 0.00 0.00 89 1017.0
20260831044204 67 167 0.0 0.0 0.00 0.00 0.00 89 1016.8
20260831043204 68 167 0.0 0.0 0.00 0.00 0.00 89 1016.7
20260831042704 68 167 0.0 0.0 0.00 0.00 0.00 89 1016.7
20260831042204 68 167 0.0 0.0 0.00 0.00 0.00 89 1016.6
20260831041203 68 167 0.0 0.0 0.00 0.00 0.00 88 1016.6
20260831040204 69 167 0.0 0.0 0.00 0.00 0.00 88 1016.5
20260831035704 69 167 0.0 0.0 0.00 0.00 0.00 89 1016.6
20260831034204 69 167 0.0 0.0 0.00 0.00 0.00 88 1016.6
20260831032703 69 167 0.0 0.0 0.00 0.00 0.00 88 1016.7
20260831030204 70 167 0.0 0.0 0.00 0.00 0.00 89 1016.6
20260831025204 70 167 0.0 0.0 0.00 0.00 0.00 89 1016.6
20260831024204 70 167 0.0 0.0 0.00 0.00 0.00 89 1016.5
20260831022203 70 168 0.0 0.0 0.00 0.00 0.00 90 1016.5
20260831021704 70 169 0.0 0.0 0.00 0.00 0.00 90 1016.4
20260831021204 70 169 0.0 1.0 0.00 0.00 0.00 89 1016.4
20260831020204 70 169 0.0 0.0 0.00 0.00 0.00 89 1016.4
20260831015704 70 169 0.0 0.0 0.00 0.00 0.00 89 1016.4